Volver al catálogo

EXPLORER 35

AIMP-E

ActivoCienciaLEO
NORAD 2884·PAYLOAD·🇺🇸 United States

Lanzado Jul 19, 1967 desde Cape Canaveral Space Force Station

Loading…

Próximos Pases (próximas 24 horas)

TLE

ObsoletoSource: Space-Track

Época: Mar 3, 1969, 11:06 UTC

1 02884U 67070  A 69062.46257656  .00014437 +00000-0 +00000-0 0  9995
2 02884 032.4564 090.2825 0136973 039.3155 321.7298 14.95777010167770

Sigue EXPLORER 35 en tiempo real con AllMySat

Download on the App Store